Location: Unspecified
(51.0000°N, 12.0000°E)
Time: 16:36:18
(UTC+01:00)

ISS - Pass Details

Date: 11 November 2017
Orbit: 402 x 407 km, 51.6° (Epoch: 19 November)

Event Time Altitude Azimuth Distance (km) Brightness Sun altitude
Exits shadow 05:10:04 73° 74° (ENE) 425 -3.7 -20.7°
Drops below altitude 10° 05:13:04 10° 96° (E) 1,456 0.2 -20.2°
Sets 05:15:09 0° 98° (E) 2,315 1.6 -19.9°
